Time,TemperatureF,DewpointF,PressureIn,WindDirection,WindDirectionDegrees,WindSpeedMPH,WindSpeedGustMPH,Humidity,HourlyPrecipIn,Conditions,Clouds,dailyrainin,SolarRadiationWatts/m^2,SoftwareType,DateUTC
2013-04-15 00:00:00,41.8,31.2,30.21,NW,321,6.0,9.0,66,0.00,,,0.00,0,HR-IXPWINDi_r2_v1.2.,2013-04-15 04:00:00,
2013-04-15 00:05:00,41.8,31.2,30.20,NW,323,10.0,10.0,66,0.00,,,0.00,0,HR-IXPWINDi_r2_v1.2.,2013-04-15 04:05:00,
2013-04-15 00:10:00,41.8,31.2,30.21,NNW,328,7.0,10.0,66,0.00,,,0.00,0,HR-IXPWINDi_r2_v1.2.,2013-04-15 04:10:00,
2013-04-15 00:15:00,41.8,31.6,30.21,NNW,328,4.0,10.0,67,0.00,,,0.00,0,HR-IXPWINDi_r2_v1.2.,2013-04-15 04:15:00,
2013-04-15 00:20:00,41.6,31.4,30.21,NW,325,7.0,10.0,67,0.00,,,0.00,0,HR-IXPWINDi_r2_v1.2.,2013-04-15 04:20:00,
2013-04-15 00:25:00,41.5,31.3,30.21,NNW,337,4.0,10.0,67,0.00,,,0.00,0,HR-IXPWINDi_r2_v1.2.,2013-04-15 04:25:00,
2013-04-15 00:30:00,41.4,31.6,30.21,NW,319,5.0,10.0,68,0.00,,,0.00,0,HR-IXPWINDi_r2_v1.2.,2013-04-15 04:30:00,
2013-04-15 00:35:00,41.4,31.6,30.21,NW,321,7.0,10.0,68,0.00,,,0.00,0,HR-IXPWINDi_r2_v1.2.,2013-04-15 04:35:00,
2013-04-15 00:40:00,41.4,31.6,30.21,NNW,327,6.0,10.0,68,0.00,,,0.00,0,HR-IXPWINDi_r2_v1.2.,2013-04-15 04:40:00,
2013-04-15 00:46:00,41.3,31.9,30.21,NNW,327,6.0,10.0,69,0.00,,,0.00,0,HR-IXPWINDi_r2_v1.2.,2013-04-15 04:46:00,
2013-04-15 00:51:00,41.2,31.8,30.21,NW,325,3.0,10.0,69,0.00,,,0.00,0,HR-IXPWINDi_r2_v1.2.,2013-04-15 04:51:00,
2013-04-15 00:56:00,41.2,31.8,30.21,North,11,6.0,11.0,69,0.00,,,0.00,0,HR-IXPWINDi_r2_v1.2.,2013-04-15 04:56:00,
2013-04-15 01:01:00,41.1,31.7,30.21,NNW,329,6.0,11.0,69,0.00,,,0.00,0,HR-IXPWINDi_r2_v1.2.,2013-04-15 05:01:00,
2013-04-15 01:06:00,41.1,32.0,30.21,NNW,334,5.0,11.0,70,0.00,,,0.00,0,HR-IXPWINDi_r2_v1.2.,2013-04-15 05:06:00,
2013-04-15 01:11:00,40.9,31.8,30.21,NNW,340,6.0,10.0,70,0.00,,,0.00,0,HR-IXPWINDi_r2_v1.2.,2013-04-15 05:11:00,
2013-04-15 01:16:00,40.9,31.8,30.21,NW,324,8.0,10.0,70,0.00,,,0.00,0,HR-IXPWINDi_r2_v1.2.,2013-04-15 05:16:00,
2013-04-15 01:21:00,40.9,32.2,30.21,NNW,342,3.0,10.0,71,0.00,,,0.00,0,HR-IXPWINDi_r2_v1.2.,2013-04-15 05:21:00,
2013-04-15 01:27:00,40.8,32.1,30.21,NNE,12,4.0,10.0,71,0.00,,,0.00,0,HR-IXPWINDi_r2_v1.2.,2013-04-15 05:27:00,
2013-04-15 01:32:00,40.7,32.0,30.21,NNW,333,3.0,11.0,71,0.00,,,0.00,0,HR-IXPWINDi_r2_v1.2.,2013-04-15 05:32:00,
2013-04-15 01:37:00,40.8,32.1,30.21,NNW,335,8.0,12.0,71,0.00,,,0.00,0,HR-IXPWINDi_r2_v1.2.,2013-04-15 05:37:00,
2013-04-15 01:42:00,40.8,32.1,30.21,NW,323,8.0,12.0,71,0.00,,,0.00,0,HR-IXPWINDi_r2_v1.2.,2013-04-15 05:42:00,
2013-04-15 01:47:00,40.7,32.0,30.21,North,5,4.0,10.0,71,0.00,,,0.00,0,HR-IXPWINDi_r2_v1.2.,2013-04-15 05:47:00,
2013-04-15 01:52:00,40.6,31.9,30.21,NNE,14,4.0,10.0,71,0.00,,,0.00,0,HR-IXPWINDi_r2_v1.2.,2013-04-15 05:52:00,
2013-04-15 01:57:00,40.6,31.9,30.21,NNW,330,6.0,11.0,71,0.00,,,0.00,0,HR-IXPWINDi_r2_v1.2.,2013-04-15 05:57:00,
2013-04-15 02:03:00,40.5,31.8,30.22,NW,324,6.0,11.0,71,0.00,,,0.00,0,HR-IXPWINDi_r2_v1.2.,2013-04-15 06:03:00,
2013-04-15 02:08:00,40.4,31.7,30.22,NW,310,8.0,10.0,71,0.00,,,0.00,0,HR-IXPWINDi_r2_v1.2.,2013-04-15 06:08:00,
2013-04-15 02:13:00,40.2,31.9,30.22,NNW,333,6.0,10.0,72,0.00,,,0.00,0,HR-IXPWINDi_r2_v1.2.,2013-04-15 06:13:00,
2013-04-15 02:18:00,40.0,31.7,30.22,North,9,3.0,9.0,72,0.00,,,0.00,0,HR-IXPWINDi_r2_v1.2.,2013-04-15 06:18:00,
2013-04-15 02:23:00,39.8,31.5,30.22,NNW,338,4.0,8.0,72,0.00,,,0.00,0,HR-IXPWINDi_r2_v1.2.,2013-04-15 06:23:00,
2013-04-15 02:28:00,39.9,31.6,30.22,NW,313,6.0,10.0,72,0.00,,,0.00,0,HR-IXPWINDi_r2_v1.2.,2013-04-15 06:28:00,
2013-04-15 02:34:00,39.8,31.8,30.22,NW,313,4.0,10.0,73,0.00,,,0.00,0,HR-IXPWINDi_r2_v1.2.,2013-04-15 06:34:00,
2013-04-15 02:39:00,39.7,31.7,30.22,North,350,4.0,11.0,73,0.00,,,0.00,0,HR-IXPWINDi_r2_v1.2.,2013-04-15 06:39:00,
2013-04-15 02:44:00,39.6,31.6,30.22,NNW,337,7.0,11.0,73,0.00,,,0.00,0,HR-IXPWINDi_r2_v1.2.,2013-04-15 06:44:00,
2013-04-15 02:50:00,39.6,31.6,30.22,NNW,343,6.0,10.0,73,0.00,,,0.00,0,HR-IXPWINDi_r2_v1.2.,2013-04-15 06:50:00,
2013-04-15 02:55:00,39.5,31.5,30.22,North,350,3.0,10.0,73,0.00,,,0.00,0,HR-IXPWINDi_r2_v1.2.,2013-04-15 06:55:00,
2013-04-15 03:00:00,39.5,31.5,30.22,NNW,348,1.0,10.0,73,0.00,,,0.00,0,HR-IXPWINDi_r2_v1.2.,2013-04-15 07:00:00,
2013-04-15 03:41:00,38.7,31.4,30.23,NNW,344,3.0,9.0,75,0.00,,,0.00,0,HR-IXPWINDi_r2_v1.2.,2013-04-15 07:41:00,
2013-04-15 03:48:00,38.5,31.2,30.24,NNW,345,3.0,8.0,75,0.00,,,0.00,0,HR-IXPWINDi_r2_v1.2.,2013-04-15 07:48:00,
2013-04-15 03:53:00,38.5,31.2,30.24,North,355,4.0,7.0,75,0.00,,,0.00,0,HR-IXPWINDi_r2_v1.2.,2013-04-15 07:53:00,
2013-04-15 03:58:00,38.4,31.1,30.25,North,355,3.0,7.0,75,0.00,,,0.00,0,HR-IXPWINDi_r2_v1.2.,2013-04-15 07:58:00,
2013-04-15 04:03:00,38.4,31.1,30.25,NW,319,2.0,7.0,75,0.00,,,0.00,0,HR-IXPWINDi_r2_v1.2.,2013-04-15 08:03:00,
2013-04-15 04:08:00,38.3,31.4,30.25,NW,317,4.0,6.0,76,0.00,,,0.00,0,HR-IXPWINDi_r2_v1.2.,2013-04-15 08:08:00,
2013-04-15 04:13:00,38.3,31.4,30.26,NNW,340,2.0,6.0,76,0.00,,,0.00,0,HR-IXPWINDi_r2_v1.2.,2013-04-15 08:13:00,
2013-04-15 04:18:00,38.2,31.3,30.26,NW,314,3.0,6.0,76,0.00,,,0.00,0,HR-IXPWINDi_r2_v1.2.,2013-04-15 08:18:00,
2013-04-15 04:23:00,38.1,31.2,30.26,NW,316,3.0,5.0,76,0.00,,,0.00,0,HR-IXPWINDi_r2_v1.2.,2013-04-15 08:23:00,
2013-04-15 04:28:00,37.9,31.0,30.26,NNW,333,4.0,5.0,76,0.00,,,0.00,0,HR-IXPWINDi_r2_v1.2.,2013-04-15 08:28:00,
2013-04-15 04:33:00,37.8,31.2,30.26,NNW,336,5.0,5.0,77,0.00,,,0.00,0,HR-IXPWINDi_r2_v1.2.,2013-04-15 08:33:00,
2013-04-15 04:39:00,37.6,31.0,30.26,NNE,13,4.0,5.0,77,0.00,,,0.00,0,HR-IXPWINDi_r2_v1.2.,2013-04-15 08:39:00,
2013-04-15 04:40:00,37.6,31.0,30.26,NW,316,3.0,6.0,77,0.00,,,0.00,0,HR-IXPWINDi_r2_v1.2.,2013-04-15 08:40:00,
2013-04-15 04:45:00,37.6,31.0,30.27,NNW,338,4.0,7.0,77,0.00,,,0.00,0,HR-IXPWINDi_r2_v1.2.,2013-04-15 08:45:00,
2013-04-15 04:50:00,37.7,31.1,30.27,North,351,4.0,7.0,77,0.00,,,0.00,0,HR-IXPWINDi_r2_v1.2.,2013-04-15 08:50:00,
2013-04-15 04:55:00,37.8,31.2,30.27,North,5,4.0,6.0,77,0.00,,,0.00,0,HR-IXPWINDi_r2_v1.2.,2013-04-15 08:55:00,
2013-04-15 05:00:00,37.8,31.2,30.27,North,360,4.0,8.0,77,0.00,,,0.00,0,HR-IXPWINDi_r2_v1.2.,2013-04-15 09:00:00,
2013-04-15 05:06:00,37.7,31.1,30.27,NNW,346,5.0,8.0,77,0.00,,,0.00,0,HR-IXPWINDi_r2_v1.2.,2013-04-15 09:06:00,
2013-04-15 05:11:00,37.5,31.2,30.27,NNE,17,6.0,8.0,78,0.00,,,0.00,0,HR-IXPWINDi_r2_v1.2.,2013-04-15 09:11:00,
2013-04-15 05:16:00,37.4,31.1,30.27,North,355,6.0,9.0,78,0.00,,,0.00,0,HR-IXPWINDi_r2_v1.2.,2013-04-15 09:16:00,
2013-04-15 05:21:00,37.5,31.2,30.27,North,11,4.0,9.0,78,0.00,,,0.00,0,HR-IXPWINDi_r2_v1.2.,2013-04-15 09:21:00,
2013-04-15 05:27:00,37.5,31.2,30.27,North,360,8.0,9.0,78,0.00,,,0.00,0,HR-IXPWINDi_r2_v1.2.,2013-04-15 09:27:00,
2013-04-15 05:32:00,37.5,31.2,30.28,North,349,8.0,10.0,78,0.00,,,0.00,0,HR-IXPWINDi_r2_v1.2.,2013-04-15 09:32:00,
2013-04-15 05:37:00,37.5,31.2,30.28,NNW,348,6.0,10.0,78,0.00,,,0.00,0,HR-IXPWINDi_r2_v1.2.,2013-04-15 09:37:00,
2013-04-15 05:42:00,37.4,31.1,30.28,North,9,6.0,10.0,78,0.00,,,0.00,0,HR-IXPWINDi_r2_v1.2.,2013-04-15 09:42:00,
2013-04-15 05:47:00,37.4,31.1,30.28,North,360,8.0,9.0,78,0.00,,,0.00,0,HR-IXPWINDi_r2_v1.2.,2013-04-15 09:47:00,
2013-04-15 05:52:00,37.3,31.0,30.28,North,355,7.0,9.0,78,0.00,,,0.00,0,HR-IXPWINDi_r2_v1.2.,2013-04-15 09:52:00,
2013-04-15 05:57:00,37.3,31.4,30.29,North,360,5.0,9.0,79,0.00,,,0.00,5,HR-IXPWINDi_r2_v1.2.,2013-04-15 09:57:00,
2013-04-15 06:02:00,37.3,31.4,30.29,North,360,6.0,8.0,79,0.00,,,0.00,7,HR-IXPWINDi_r2_v1.2.,2013-04-15 10:02:00,
2013-04-15 06:07:00,37.3,31.4,30.30,NNE,22,6.0,8.0,79,0.00,,,0.00,9,HR-IXPWINDi_r2_v1.2.,2013-04-15 10:07:00,
2013-04-15 06:13:00,37.3,31.4,30.30,North,10,6.0,9.0,79,0.00,,,0.00,14,HR-IXPWINDi_r2_v1.2.,2013-04-15 10:13:00,
2013-04-15 06:18:00,37.3,31.4,30.30,North,5,5.0,9.0,79,0.00,,,0.00,21,HR-IXPWINDi_r2_v1.2.,2013-04-15 10:18:00,
2013-04-15 06:23:00,37.3,31.4,30.31,North,355,3.0,8.0,79,0.00,,,0.00,28,HR-IXPWINDi_r2_v1.2.,2013-04-15 10:23:00,
2013-04-15 06:28:00,37.5,31.6,30.31,NNE,16,3.0,8.0,79,0.00,,,0.00,35,HR-IXPWINDi_r2_v1.2.,2013-04-15 10:28:00,
2013-04-15 06:33:00,37.7,31.4,30.31,North,5,4.0,8.0,78,0.00,,,0.00,44,HR-IXPWINDi_r2_v1.2.,2013-04-15 10:33:00,
2013-04-15 06:38:00,37.7,31.4,30.31,North,10,5.0,7.0,78,0.00,,,0.00,49,HR-IXPWINDi_r2_v1.2.,2013-04-15 10:38:00,
2013-04-15 06:43:00,37.9,31.6,30.32,NNE,23,5.0,7.0,78,0.00,,,0.00,58,HR-IXPWINDi_r2_v1.2.,2013-04-15 10:43:00,
2013-04-15 06:48:00,38.0,31.7,30.32,North,5,5.0,8.0,78,0.00,,,0.00,65,HR-IXPWINDi_r2_v1.2.,2013-04-15 10:48:00,
2013-04-15 06:54:00,38.2,31.9,30.33,North,9,3.0,8.0,78,0.00,,,0.00,77,HR-IXPWINDi_r2_v1.2.,2013-04-15 10:54:00,
2013-04-15 06:59:00,38.5,31.9,30.33,NNE,15,6.0,9.0,77,0.00,,,0.00,88,HR-IXPWINDi_r2_v1.2.,2013-04-15 10:59:00,
2013-04-15 07:04:00,38.7,32.1,30.33,North,9,4.0,10.0,77,0.00,,,0.00,107,HR-IXPWINDi_r2_v1.2.,2013-04-15 11:04:00,
2013-04-15 07:09:00,38.9,32.0,30.34,NW,324,6.0,10.0,76,0.00,,,0.00,121,HR-IXPWINDi_r2_v1.2.,2013-04-15 11:09:00,
2013-04-15 07:14:00,39.3,32.3,30.34,NNE,15,6.0,8.0,76,0.00,,,0.00,125,HR-IXPWINDi_r2_v1.2.,2013-04-15 11:14:00,
2013-04-15 07:19:00,39.5,32.2,30.35,North,5,4.0,8.0,75,0.00,,,0.00,141,HR-IXPWINDi_r2_v1.2.,2013-04-15 11:19:00,
2013-04-15 07:24:00,39.7,32.4,30.35,NNE,26,6.0,8.0,75,0.00,,,0.00,162,HR-IXPWINDi_r2_v1.2.,2013-04-15 11:24:00,
2013-04-15 07:29:00,40.1,32.5,30.35,NNE,28,4.0,7.0,74,0.00,,,0.00,186,HR-IXPWINDi_r2_v1.2.,2013-04-15 11:29:00,
2013-04-15 07:34:00,40.6,32.9,30.35,NW,309,3.0,6.0,74,0.00,,,0.00,207,HR-IXPWINDi_r2_v1.2.,2013-04-15 11:34:00,
2013-04-15 07:40:00,41.2,32.8,30.35,NNW,346,5.0,5.0,72,0.00,,,0.00,241,HR-IXPWINDi_r2_v1.2.,2013-04-15 11:40:00,
2013-04-15 07:45:00,41.4,32.7,30.35,North,10,6.0,8.0,71,0.00,,,0.00,241,HR-IXPWINDi_r2_v1.2.,2013-04-15 11:45:00,
2013-04-15 07:50:00,41.8,32.7,30.35,NNE,15,6.0,9.0,70,0.00,,,0.00,260,HR-IXPWINDi_r2_v1.2.,2013-04-15 11:50:00,
2013-04-15 07:55:00,42.2,33.1,30.35,North,11,4.0,9.0,70,0.00,,,0.00,264,HR-IXPWINDi_r2_v1.2.,2013-04-15 11:55:00,
2013-04-15 08:00:00,42.8,33.3,30.35,North,5,4.0,8.0,69,0.00,,,0.00,267,HR-IXPWINDi_r2_v1.2.,2013-04-15 12:00:00,
2013-04-15 08:05:00,43.5,33.6,30.35,NNE,30,3.0,6.0,68,0.00,,,0.00,283,HR-IXPWINDi_r2_v1.2.,2013-04-15 12:05:00,
2013-04-15 08:11:00,43.6,33.3,30.35,NW,326,1.0,6.0,67,0.00,,,0.00,295,HR-IXPWINDi_r2_v1.2.,2013-04-15 12:11:00,
2013-04-15 08:16:00,44.1,33.8,30.36,NE,46,5.0,7.0,67,0.00,,,0.00,311,HR-IXPWINDi_r2_v1.2.,2013-04-15 12:16:00,
2013-04-15 08:21:00,44.7,34.0,30.36,NNE,14,3.0,7.0,66,0.00,,,0.00,327,HR-IXPWINDi_r2_v1.2.,2013-04-15 12:21:00,
2013-04-15 08:26:00,45.2,33.7,30.36,NE,46,1.0,7.0,64,0.00,,,0.00,357,HR-IXPWINDi_r2_v1.2.,2013-04-15 12:26:00,
2013-04-15 08:31:00,45.5,33.6,30.36,ENE,65,5.0,7.0,63,0.00,,,0.00,373,HR-IXPWINDi_r2_v1.2.,2013-04-15 12:31:00,
2013-04-15 08:37:00,45.6,33.3,30.36,NNE,28,6.0,8.0,62,0.00,,,0.00,378,HR-IXPWINDi_r2_v1.2.,2013-04-15 12:37:00,
2013-04-15 08:42:00,45.8,33.1,30.36,North,360,5.0,9.0,61,0.00,,,0.00,387,HR-IXPWINDi_r2_v1.2.,2013-04-15 12:42:00,
2013-04-15 08:47:00,46.2,33.5,30.36,NNE,26,3.0,9.0,61,0.00,,,0.00,438,HR-IXPWINDi_r2_v1.2.,2013-04-15 12:47:00,
2013-04-15 08:52:00,47.0,33.4,30.36,NNE,13,5.0,8.0,59,0.00,,,0.00,424,HR-IXPWINDi_r2_v1.2.,2013-04-15 12:52:00,
2013-04-15 08:58:00,47.1,33.1,30.36,NNE,30,7.0,8.0,58,0.00,,,0.00,480,HR-IXPWINDi_r2_v1.2.,2013-04-15 12:58:00,
2013-04-15 09:03:00,47.2,33.1,30.37,NNE,17,5.0,8.0,58,0.00,,,0.00,450,HR-IXPWINDi_r2_v1.2.,2013-04-15 13:03:00,
2013-04-15 09:08:00,47.3,32.8,30.37,NE,45,4.0,11.0,57,0.00,,,0.00,517,HR-IXPWINDi_r2_v1.2.,2013-04-15 13:08:00,
2013-04-15 09:13:00,47.5,33.0,30.37,NNE,23,4.0,11.0,57,0.00,,,0.00,527,HR-IXPWINDi_r2_v1.2.,2013-04-15 13:13:00,
2013-04-15 09:18:00,47.9,32.9,30.37,ENE,69,4.0,9.0,56,0.00,,,0.00,564,HR-IXPWINDi_r2_v1.2.,2013-04-15 13:18:00,
2013-04-15 09:24:00,48.3,33.7,30.37,North,11,5.0,8.0,57,0.00,,,0.00,547,HR-IXPWINDi_r2_v1.2.,2013-04-15 13:24:00,
2013-04-15 09:29:00,49.0,33.5,30.37,NNE,12,4.0,8.0,55,0.00,,,0.00,573,HR-IXPWINDi_r2_v1.2.,2013-04-15 13:29:00,
2013-04-15 09:34:00,49.0,33.5,30.37,East,84,5.0,7.0,55,0.00,,,0.00,545,HR-IXPWINDi_r2_v1.2.,2013-04-15 13:34:00,
2013-04-15 09:40:00,48.2,32.3,30.37,ENE,60,9.0,10.0,54,0.00,,,0.00,598,HR-IXPWINDi_r2_v1.2.,2013-04-15 13:40:00,
2013-04-15 09:45:00,47.9,32.5,30.38,ESE,115,2.0,10.0,55,0.00,,,0.00,610,HR-IXPWINDi_r2_v1.2.,2013-04-15 13:45:00,
2013-04-15 09:50:00,47.7,35.7,30.38,ESE,109,2.0,10.0,63,0.00,,,0.00,585,HR-IXPWINDi_r2_v1.2.,2013-04-15 13:50:00,
2013-04-15 09:55:00,49.2,34.1,30.38,East,87,1.0,8.0,56,0.00,,,0.00,647,HR-IXPWINDi_r2_v1.2.,2013-04-15 13:55:00,
2013-04-15 10:00:00,49.1,34.5,30.38,ESE,107,4.0,9.0,57,0.00,,,0.00,629,HR-IXPWINDi_r2_v1.2.,2013-04-15 14:00:00,
2013-04-15 10:05:00,47.8,35.4,30.38,SE,133,3.0,9.0,62,0.00,,,0.00,642,HR-IXPWINDi_r2_v1.2.,2013-04-15 14:05:00,
2013-04-15 10:10:00,47.3,36.5,30.38,SE,124,3.0,8.0,66,0.00,,,0.00,693,HR-IXPWINDi_r2_v1.2.,2013-04-15 14:10:00,
2013-04-15 10:16:00,47.6,37.5,30.39,SSE,154,0.0,6.0,68,0.00,,,0.00,684,HR-IXPWINDi_r2_v1.2.,2013-04-15 14:16:00,
2013-04-15 10:21:00,47.9,37.0,30.39,SSE,160,2.0,5.0,66,0.00,,,0.00,714,HR-IXPWINDi_r2_v1.2.,2013-04-15 14:21:00,
2013-04-15 10:26:00,47.9,38.2,30.39,SE,127,3.0,5.0,69,0.00,,,0.00,729,HR-IXPWINDi_r2_v1.2.,2013-04-15 14:26:00,
2013-04-15 10:31:00,48.9,36.4,30.39,East,88,1.0,4.0,62,0.00,,,0.00,752,HR-IXPWINDi_r2_v1.2.,2013-04-15 14:31:00,
2013-04-15 10:37:00,49.3,35.5,30.39,SE,126,3.0,5.0,59,0.00,,,0.00,765,HR-IXPWINDi_r2_v1.2.,2013-04-15 14:37:00,
2013-04-15 10:42:00,48.9,37.2,30.39,SE,146,2.0,5.0,64,0.00,,,0.00,765,HR-IXPWINDi_r2_v1.2.,2013-04-15 14:42:00,
2013-04-15 10:47:00,48.1,37.2,30.39,SSE,163,3.0,5.0,66,0.00,,,0.00,773,HR-IXPWINDi_r2_v1.2.,2013-04-15 14:47:00,
2013-04-15 10:53:00,47.7,37.2,30.39,SSE,155,4.0,5.0,67,0.00,,,0.00,791,HR-IXPWINDi_r2_v1.2.,2013-04-15 14:53:00,
2013-04-15 10:58:00,47.8,37.7,30.39,South,172,6.0,6.0,68,0.00,,,0.00,826,HR-IXPWINDi_r2_v1.2.,2013-04-15 14:58:00,
2013-04-15 11:03:00,48.3,37.0,30.39,South,183,2.0,6.0,65,0.00,,,0.00,1021,HR-IXPWINDi_r2_v1.2.,2013-04-15 15:03:00,
2013-04-15 11:08:00,48.4,37.1,30.39,South,181,2.0,7.0,65,0.00,,,0.00,501,HR-IXPWINDi_r2_v1.2.,2013-04-15 15:08:00,
2013-04-15 11:13:00,48.4,36.7,30.39,SSE,154,4.0,7.0,64,0.00,,,0.00,501,HR-IXPWINDi_r2_v1.2.,2013-04-15 15:13:00,
2013-04-15 11:18:00,49.6,36.7,30.39,SE,137,4.0,9.0,61,0.00,,,0.00,1078,HR-IXPWINDi_r2_v1.2.,2013-04-15 15:18:00,
2013-04-15 11:23:00,49.4,36.9,30.39,SE,140,1.0,9.0,62,0.00,,,0.00,441,HR-IXPWINDi_r2_v1.2.,2013-04-15 15:23:00,
2013-04-15 11:28:00,49.4,37.7,30.39,ESE,102,2.0,7.0,64,0.00,,,0.00,411,HR-IXPWINDi_r2_v1.2.,2013-04-15 15:28:00,
2013-04-15 11:33:00,49.5,36.2,30.39,ESE,108,2.0,7.0,60,0.00,,,0.00,508,HR-IXPWINDi_r2_v1.2.,2013-04-15 15:33:00,
2013-04-15 11:39:00,49.4,36.9,30.38,East,92,2.0,7.0,62,0.00,,,0.00,659,HR-IXPWINDi_r2_v1.2.,2013-04-15 15:39:00,
2013-04-15 11:44:00,48.4,35.5,30.38,East,87,2.0,9.0,61,0.00,,,0.00,436,HR-IXPWINDi_r2_v1.2.,2013-04-15 15:44:00,
2013-04-15 11:49:00,47.6,35.6,30.38,ENE,78,5.0,9.0,63,0.00,,,0.00,432,HR-IXPWINDi_r2_v1.2.,2013-04-15 15:49:00,
2013-04-15 11:54:00,47.9,36.7,30.38,East,88,6.0,8.0,65,0.00,,,0.00,494,HR-IXPWINDi_r2_v1.2.,2013-04-15 15:54:00,
2013-04-15 11:59:00,47.3,36.1,30.38,East,98,6.0,8.0,65,0.00,,,0.00,577,HR-IXPWINDi_r2_v1.2.,2013-04-15 15:59:00,
2013-04-15 12:04:00,47.0,36.2,30.38,East,92,5.0,9.0,66,0.00,,,0.00,742,HR-IXPWINDi_r2_v1.2.,2013-04-15 16:04:00,
2013-04-15 12:10:00,48.1,36.5,30.38,ESE,103,4.0,9.0,64,0.00,,,0.00,638,HR-IXPWINDi_r2_v1.2.,2013-04-15 16:10:00,
2013-04-15 12:15:00,47.6,34.8,30.38,ENE,65,3.0,9.0,61,0.00,,,0.00,497,HR-IXPWINDi_r2_v1.2.,2013-04-15 16:15:00,
2013-04-15 12:21:00,48.3,35.4,30.38,East,86,5.0,9.0,61,0.00,,,0.00,645,HR-IXPWINDi_r2_v1.2.,2013-04-15 16:21:00,
2013-04-15 12:26:00,48.0,35.6,30.38,SE,140,8.0,10.0,62,0.00,,,0.00,527,HR-IXPWINDi_r2_v1.2.,2013-04-15 16:26:00,
2013-04-15 12:31:00,46.8,35.2,30.38,ESE,117,9.0,11.0,64,0.00,,,0.00,645,HR-IXPWINDi_r2_v1.2.,2013-04-15 16:31:00,
2013-04-15 12:37:00,46.9,35.7,30.38,SE,140,9.0,11.0,65,0.00,,,0.00,536,HR-IXPWINDi_r2_v1.2.,2013-04-15 16:37:00,
2013-04-15 12:42:00,47.2,37.1,30.38,SE,126,2.0,10.0,68,0.00,,,0.00,561,HR-IXPWINDi_r2_v1.2.,2013-04-15 16:42:00,
2013-04-15 12:47:00,48.3,37.0,30.37,ENE,76,4.0,9.0,65,0.00,,,0.00,485,HR-IXPWINDi_r2_v1.2.,2013-04-15 16:47:00,
2013-04-15 12:52:00,48.1,36.5,30.38,East,98,5.0,10.0,64,0.00,,,0.00,531,HR-IXPWINDi_r2_v1.2.,2013-04-15 16:52:00,
2013-04-15 12:57:00,47.2,36.0,30.37,ENE,74,5.0,11.0,65,0.00,,,0.00,492,HR-IXPWINDi_r2_v1.2.,2013-04-15 16:57:00,
2013-04-15 13:02:00,46.5,36.1,30.37,ESE,113,8.0,11.0,67,0.00,,,0.00,476,HR-IXPWINDi_r2_v1.2.,2013-04-15 17:02:00,
2013-04-15 13:07:00,45.8,36.5,30.37,East,99,8.0,11.0,70,0.00,,,0.00,468,HR-IXPWINDi_r2_v1.2.,2013-04-15 17:07:00,
2013-04-15 13:13:00,46.5,37.9,30.37,East,101,5.0,11.0,72,0.00,,,0.00,605,HR-IXPWINDi_r2_v1.2.,2013-04-15 17:13:00,
2013-04-15 13:18:00,46.3,37.0,30.37,ENE,68,10.0,13.0,70,0.00,,,0.00,944,HR-IXPWINDi_r2_v1.2.,2013-04-15 17:18:00,
2013-04-15 13:21:00,46.1,37.2,30.37,East,82,8.0,13.0,71,0.00,,,0.00,889,HR-IXPWINDi_r2_v1.2.,2013-04-15 17:21:00,
2013-04-15 13:26:00,47.6,38.3,30.37,East,88,5.0,13.0,70,0.00,,,0.00,784,HR-IXPWINDi_r2_v1.2.,2013-04-15 17:26:00,
2013-04-15 13:31:00,48.0,37.9,30.37,ENE,59,10.0,11.0,68,0.00,,,0.00,682,HR-IXPWINDi_r2_v1.2.,2013-04-15 17:31:00,
2013-04-15 13:36:00,48.5,38.8,30.37,ENE,61,5.0,11.0,69,0.00,,,0.00,863,HR-IXPWINDi_r2_v1.2.,2013-04-15 17:36:00,
2013-04-15 13:41:00,48.4,38.7,30.37,ENE,78,7.0,11.0,69,0.00,,,0.00,824,HR-IXPWINDi_r2_v1.2.,2013-04-15 17:41:00,
2013-04-15 13:46:00,49.3,39.5,30.38,NE,55,4.0,11.0,69,0.00,,,0.00,805,HR-IXPWINDi_r2_v1.2.,2013-04-15 17:46:00,
2013-04-15 13:52:00,49.4,39.2,30.38,East,86,3.0,11.0,68,0.00,,,0.00,696,HR-IXPWINDi_r2_v1.2.,2013-04-15 17:52:00,
2013-04-15 13:57:00,49.0,39.2,30.38,ESE,102,0.0,9.0,69,0.00,,,0.00,738,HR-IXPWINDi_r2_v1.2.,2013-04-15 17:57:00,
2013-04-15 14:02:00,49.4,39.6,30.38,East,99,13.0,13.0,69,0.00,,,0.00,738,HR-IXPWINDi_r2_v1.2.,2013-04-15 18:02:00,
2013-04-15 14:07:00,49.8,40.0,30.37,East,90,8.0,13.0,69,0.00,,,0.00,733,HR-IXPWINDi_r2_v1.2.,2013-04-15 18:07:00,
2013-04-15 14:12:00,49.0,39.2,30.37,ENE,62,4.0,13.0,69,0.00,,,0.00,728,HR-IXPWINDi_r2_v1.2.,2013-04-15 18:12:00,
2013-04-15 14:29:00,48.7,39.7,30.37,ENE,63,7.0,13.0,71,0.00,,,0.00,561,HR-IXPWINDi_r2_v1.2.,2013-04-15 18:29:00,
2013-04-15 14:34:00,48.2,39.2,30.36,ENE,62,4.0,14.0,71,0.00,,,0.00,705,HR-IXPWINDi_r2_v1.2.,2013-04-15 18:34:00,
2013-04-15 14:39:00,47.6,39.0,30.36,ENE,67,4.0,14.0,72,0.00,,,0.00,591,HR-IXPWINDi_r2_v1.2.,2013-04-15 18:39:00,
2013-04-15 14:44:00,47.7,39.4,30.36,ESE,123,5.0,13.0,73,0.00,,,0.00,545,HR-IXPWINDi_r2_v1.2.,2013-04-15 18:44:00,
2013-04-15 14:49:00,47.1,39.2,30.36,ESE,106,7.0,15.0,74,0.00,,,0.00,399,HR-IXPWINDi_r2_v1.2.,2013-04-15 18:49:00,
2013-04-15 14:54:00,47.7,39.8,30.36,ENE,74,4.0,15.0,74,0.00,,,0.00,411,HR-IXPWINDi_r2_v1.2.,2013-04-15 18:54:00,
2013-04-15 15:00:00,47.4,39.5,30.36,ENE,63,9.0,12.0,74,0.00,,,0.00,439,HR-IXPWINDi_r2_v1.2.,2013-04-15 19:00:00,
2013-04-15 15:05:00,47.2,39.6,30.36,ENE,65,7.0,14.0,75,0.00,,,0.00,461,HR-IXPWINDi_r2_v1.2.,2013-04-15 19:05:00,
2013-04-15 15:10:00,47.7,39.8,30.36,East,98,1.0,14.0,74,0.00,,,0.00,360,HR-IXPWINDi_r2_v1.2.,2013-04-15 19:10:00,
2013-04-15 15:15:00,47.9,39.3,30.36,East,86,3.0,11.0,72,0.00,,,0.00,390,HR-IXPWINDi_r2_v1.2.,2013-04-15 19:15:00,
2013-04-15 15:20:00,47.9,40.0,30.36,ENE,70,5.0,11.0,74,0.00,,,0.00,439,HR-IXPWINDi_r2_v1.2.,2013-04-15 19:20:00,
2013-04-15 15:26:00,47.9,39.6,30.35,ESE,102,1.0,10.0,73,0.00,,,0.00,359,HR-IXPWINDi_r2_v1.2.,2013-04-15 19:26:00,
2013-04-15 15:31:00,47.3,39.4,30.35,ESE,113,4.0,8.0,74,0.00,,,0.00,410,HR-IXPWINDi_r2_v1.2.,2013-04-15 19:31:00,
2013-04-15 15:36:00,47.0,39.4,30.35,East,101,6.0,10.0,75,0.00,,,0.00,441,HR-IXPWINDi_r2_v1.2.,2013-04-15 19:36:00,
2013-04-15 15:41:00,47.2,39.3,30.35,ESE,119,9.0,13.0,74,0.00,,,0.00,396,HR-IXPWINDi_r2_v1.2.,2013-04-15 19:41:00,
2013-04-15 15:46:00,46.5,39.0,30.35,SE,127,8.0,13.0,75,0.00,,,0.00,369,HR-IXPWINDi_r2_v1.2.,2013-04-15 19:46:00,
2013-04-15 15:51:00,46.3,39.1,30.35,ESE,109,5.0,12.0,76,0.00,,,0.00,332,HR-IXPWINDi_r2_v1.2.,2013-04-15 19:51:00,
2013-04-15 15:56:00,46.5,39.6,30.35,SE,125,8.0,12.0,77,0.00,,,0.00,341,HR-IXPWINDi_r2_v1.2.,2013-04-15 19:56:00,
2013-04-15 15:57:00,46.4,39.2,30.35,SE,131,10.0,12.0,76,0.00,,,0.00,341,HR-IXPWINDi_r2_v1.2.,2013-04-15 19:57:00,
2013-04-15 16:02:00,46.0,39.1,30.35,ESE,111,3.0,13.0,77,0.00,,,0.00,346,HR-IXPWINDi_r2_v1.2.,2013-04-15 20:02:00,
2013-04-15 16:07:00,46.0,39.5,30.35,ESE,113,5.0,14.0,78,0.00,,,0.00,229,HR-IXPWINDi_r2_v1.2.,2013-04-15 20:07:00,
2013-04-15 16:12:00,45.7,39.5,30.34,ESE,103,9.0,14.0,79,0.00,,,0.00,260,HR-IXPWINDi_r2_v1.2.,2013-04-15 20:12:00,
2013-04-15 16:17:00,45.5,39.3,30.34,ESE,117,7.0,12.0,79,0.00,,,0.00,315,HR-IXPWINDi_r2_v1.2.,2013-04-15 20:17:00,
2013-04-15 16:22:00,46.1,39.6,30.34,ESE,117,7.0,12.0,78,0.00,,,0.00,207,HR-IXPWINDi_r2_v1.2.,2013-04-15 20:22:00,
2013-04-15 16:28:00,45.6,39.4,30.34,East,80,5.0,13.0,79,0.00,,,0.00,185,HR-IXPWINDi_r2_v1.2.,2013-04-15 20:28:00,
2013-04-15 16:33:00,46.0,39.8,30.34,ESE,109,5.0,13.0,79,0.00,,,0.00,179,HR-IXPWINDi_r2_v1.2.,2013-04-15 20:33:00,
2013-04-15 16:38:00,45.8,39.3,30.34,ESE,113,8.0,11.0,78,0.00,,,0.00,178,HR-IXPWINDi_r2_v1.2.,2013-04-15 20:38:00,
2013-04-15 16:43:00,45.7,38.9,30.34,ESE,110,9.0,11.0,77,0.00,,,0.00,185,HR-IXPWINDi_r2_v1.2.,2013-04-15 20:43:00,
2013-04-15 16:49:00,45.8,39.0,30.34,ESE,109,10.0,10.0,77,0.00,,,0.00,193,HR-IXPWINDi_r2_v1.2.,2013-04-15 20:49:00,
2013-04-15 16:54:00,45.7,38.9,30.34,SE,130,6.0,10.0,77,0.00,,,0.00,232,HR-IXPWINDi_r2_v1.2.,2013-04-15 20:54:00,
2013-04-15 16:59:00,45.7,39.2,30.34,ENE,66,10.0,13.0,78,0.00,,,0.00,232,HR-IXPWINDi_r2_v1.2.,2013-04-15 20:59:00,
2013-04-15 17:04:00,46.1,39.2,30.34,SE,134,8.0,14.0,77,0.00,,,0.00,230,HR-IXPWINDi_r2_v1.2.,2013-04-15 21:04:00,
2013-04-15 17:09:00,45.9,39.1,30.34,East,101,8.0,14.0,77,0.00,,,0.00,255,HR-IXPWINDi_r2_v1.2.,2013-04-15 21:09:00,
2013-04-15 17:14:00,46.1,39.6,30.34,ESE,105,5.0,12.0,78,0.00,,,0.00,383,HR-IXPWINDi_r2_v1.2.,2013-04-15 21:14:00,
2013-04-15 17:20:00,46.1,39.2,30.34,ESE,123,10.0,13.0,77,0.00,,,0.00,332,HR-IXPWINDi_r2_v1.2.,2013-04-15 21:20:00,
2013-04-15 17:25:00,46.2,39.3,30.34,ESE,123,5.0,13.0,77,0.00,,,0.00,339,HR-IXPWINDi_r2_v1.2.,2013-04-15 21:25:00,
2013-04-15 17:30:00,46.1,39.2,30.34,ENE,74,8.0,13.0,77,0.00,,,0.00,223,HR-IXPWINDi_r2_v1.2.,2013-04-15 21:30:00,
2013-04-15 17:35:00,46.2,39.0,30.34,ENE,73,3.0,14.0,76,0.00,,,0.00,167,HR-IXPWINDi_r2_v1.2.,2013-04-15 21:35:00,
2013-04-15 17:40:00,45.9,39.4,30.34,SE,143,3.0,14.0,78,0.00,,,0.00,172,HR-IXPWINDi_r2_v1.2.,2013-04-15 21:40:00,
2013-04-15 17:45:00,45.9,39.4,30.34,East,98,1.0,12.0,78,0.00,,,0.00,149,HR-IXPWINDi_r2_v1.2.,2013-04-15 21:45:00,
2013-04-15 17:51:00,45.7,38.5,30.34,ESE,119,7.0,14.0,76,0.00,,,0.00,186,HR-IXPWINDi_r2_v1.2.,2013-04-15 21:51:00,
2013-04-15 17:56:00,45.8,39.0,30.34,ESE,105,8.0,14.0,77,0.00,,,0.00,227,HR-IXPWINDi_r2_v1.2.,2013-04-15 21:56:00,
2013-04-15 18:01:00,46.0,39.1,30.34,ESE,105,1.0,13.0,77,0.00,,,0.00,199,HR-IXPWINDi_r2_v1.2.,2013-04-15 22:01:00,
2013-04-15 18:07:00,46.0,39.1,30.35,ENE,61,2.0,13.0,77,0.00,,,0.00,171,HR-IXPWINDi_r2_v1.2.,2013-04-15 22:07:00,
2013-04-15 18:12:00,45.8,39.3,30.35,East,96,8.0,12.0,78,0.00,,,0.00,151,HR-IXPWINDi_r2_v1.2.,2013-04-15 22:12:00,
2013-04-15 18:17:00,45.8,39.3,30.35,East,90,3.0,12.0,78,0.00,,,0.00,132,HR-IXPWINDi_r2_v1.2.,2013-04-15 22:17:00,
2013-04-15 18:22:00,45.8,39.3,30.35,ENE,69,5.0,13.0,78,0.00,,,0.00,113,HR-IXPWINDi_r2_v1.2.,2013-04-15 22:22:00,
2013-04-15 18:27:00,45.7,39.2,30.34,ESE,102,5.0,14.0,78,0.00,,,0.00,91,HR-IXPWINDi_r2_v1.2.,2013-04-15 22:27:00,
2013-04-15 18:32:00,45.6,39.4,30.34,ESE,111,3.0,14.0,79,0.00,,,0.00,77,HR-IXPWINDi_r2_v1.2.,2013-04-15 22:32:00,
2013-04-15 18:38:00,45.5,39.3,30.35,ENE,63,1.0,15.0,79,0.00,,,0.00,56,HR-IXPWINDi_r2_v1.2.,2013-04-15 22:38:00,
2013-04-15 18:43:00,45.4,39.5,30.35,ESE,102,9.0,15.0,80,0.00,,,0.00,33,HR-IXPWINDi_r2_v1.2.,2013-04-15 22:43:00,
2013-04-15 18:48:00,45.4,39.5,30.35,SE,143,4.0,14.0,80,0.00,,,0.00,35,HR-IXPWINDi_r2_v1.2.,2013-04-15 22:48:00,
2013-04-15 18:53:00,45.3,39.8,30.35,SE,141,2.0,15.0,81,0.00,,,0.00,30,HR-IXPWINDi_r2_v1.2.,2013-04-15 22:53:00,
2013-04-15 18:58:00,45.3,39.8,30.35,SE,127,11.0,15.0,81,0.00,,,0.00,25,HR-IXPWINDi_r2_v1.2.,2013-04-15 22:58:00,
2013-04-15 19:04:00,45.2,39.7,30.35,SE,128,3.0,11.0,81,0.00,,,0.00,19,HR-IXPWINDi_r2_v1.2.,2013-04-15 23:04:00,
2013-04-15 19:09:00,45.1,39.9,30.35,ESE,111,7.0,14.0,82,0.00,,,0.00,12,HR-IXPWINDi_r2_v1.2.,2013-04-15 23:09:00,
2013-04-15 19:14:00,45.0,39.8,30.35,SE,132,9.0,14.0,82,0.00,,,0.00,9,HR-IXPWINDi_r2_v1.2.,2013-04-15 23:14:00,
2013-04-15 19:19:00,44.9,40.0,30.35,ENE,73,10.0,11.0,83,0.00,,,0.00,7,HR-IXPWINDi_r2_v1.2.,2013-04-15 23:19:00,
2013-04-15 19:24:00,44.8,39.9,30.35,ESE,123,8.0,13.0,83,0.00,,,0.00,5,HR-IXPWINDi_r2_v1.2.,2013-04-15 23:24:00,
2013-04-15 19:29:00,44.8,39.9,30.36,ESE,112,10.0,14.0,83,0.00,,,0.00,0,HR-IXPWINDi_r2_v1.2.,2013-04-15 23:29:00,
2013-04-15 19:35:00,44.8,39.6,30.36,East,99,5.0,14.0,82,0.00,,,0.00,0,HR-IXPWINDi_r2_v1.2.,2013-04-15 23:35:00,
2013-04-15 19:41:00,45.0,39.8,30.37,ESE,113,7.0,13.0,82,0.00,,,0.00,0,HR-IXPWINDi_r2_v1.2.,2013-04-15 23:41:00,
2013-04-15 19:46:00,45.1,39.9,30.38,ESE,122,9.0,13.0,82,0.00,,,0.00,0,HR-IXPWINDi_r2_v1.2.,2013-04-15 23:46:00,
2013-04-15 19:51:00,45.0,39.8,30.38,SE,128,5.0,13.0,82,0.00,,,0.00,0,HR-IXPWINDi_r2_v1.2.,2013-04-15 23:51:00,
2013-04-15 19:57:00,44.9,40.0,30.38,SE,136,11.0,15.0,83,0.00,,,0.00,0,HR-IXPWINDi_r2_v1.2.,2013-04-15 23:57:00,
2013-04-15 20:02:00,44.7,39.8,30.38,SE,145,8.0,15.0,83,0.00,,,0.00,0,HR-IXPWINDi_r2_v1.2.,2013-04-16 00:02:00,
2013-04-15 20:07:00,44.7,39.8,30.39,SSE,157,7.0,15.0,83,0.00,,,0.00,0,HR-IXPWINDi_r2_v1.2.,2013-04-16 00:07:00,
2013-04-15 20:12:00,44.6,40.0,30.39,SE,138,8.0,14.0,84,0.00,,,0.00,0,HR-IXPWINDi_r2_v1.2.,2013-04-16 00:12:00,
2013-04-15 20:18:00,44.5,39.9,30.39,SE,133,12.0,14.0,84,0.00,,,0.00,0,HR-IXPWINDi_r2_v1.2.,2013-04-16 00:18:00,
2013-04-15 20:23:00,44.5,39.9,30.38,SE,145,5.0,14.0,84,0.00,,,0.00,0,HR-IXPWINDi_r2_v1.2.,2013-04-16 00:23:00,
2013-04-15 20:28:00,44.5,39.9,30.38,East,94,11.0,15.0,84,0.00,,,0.00,0,HR-IXPWINDi_r2_v1.2.,2013-04-16 00:28:00,
2013-04-15 20:33:00,44.5,40.2,30.38,SE,126,11.0,16.0,85,0.00,,,0.00,0,HR-IXPWINDi_r2_v1.2.,2013-04-16 00:33:00,
2013-04-15 20:39:00,44.5,40.2,30.38,ESE,121,8.0,16.0,85,0.00,,,0.00,0,HR-IXPWINDi_r2_v1.2.,2013-04-16 00:39:00,
2013-04-15 20:44:00,44.5,40.2,30.38,SE,138,6.0,15.0,85,0.00,,,0.00,0,HR-IXPWINDi_r2_v1.2.,2013-04-16 00:44:00,
2013-04-15 20:50:00,44.6,40.3,30.38,SE,145,6.0,16.0,85,0.00,,,0.00,0,HR-IXPWINDi_r2_v1.2.,2013-04-16 00:50:00,
2013-04-15 20:55:00,44.6,40.3,30.38,SE,136,8.0,16.0,85,0.00,,,0.00,0,HR-IXPWINDi_r2_v1.2.,2013-04-16 00:55:00,
2013-04-15 21:00:00,44.8,40.2,30.38,SE,126,7.0,13.0,84,0.00,,,0.00,0,HR-IXPWINDi_r2_v1.2.,2013-04-16 01:00:00,
2013-04-15 21:05:00,44.9,40.3,30.38,SSE,155,7.0,11.0,84,0.00,,,0.00,0,HR-IXPWINDi_r2_v1.2.,2013-04-16 01:05:00,
2013-04-15 21:10:00,44.8,40.2,30.38,SE,134,5.0,11.0,84,0.00,,,0.00,0,HR-IXPWINDi_r2_v1.2.,2013-04-16 01:10:00,
2013-04-15 21:15:00,44.7,40.4,30.38,SSW,207,7.0,11.0,85,0.00,,,0.00,0,HR-IXPWINDi_r2_v1.2.,2013-04-16 01:15:00,
2013-04-15 21:20:00,44.6,40.3,30.38,SSE,158,4.0,12.0,85,0.00,,,0.00,0,HR-IXPWINDi_r2_v1.2.,2013-04-16 01:20:00,
2013-04-15 21:25:00,44.6,40.3,30.39,SE,146,5.0,12.0,85,0.00,,,0.00,0,HR-IXPWINDi_r2_v1.2.,2013-04-16 01:25:00,
2013-04-15 21:31:00,44.6,40.3,30.39,ESE,120,5.0,12.0,85,0.00,,,0.00,0,HR-IXPWINDi_r2_v1.2.,2013-04-16 01:31:00,
2013-04-15 21:36:00,44.6,40.3,30.39,South,169,5.0,12.0,85,0.00,,,0.00,0,HR-IXPWINDi_r2_v1.2.,2013-04-16 01:36:00,
2013-04-15 21:41:00,44.5,40.2,30.39,South,175,5.0,12.0,85,0.00,,,0.00,0,HR-IXPWINDi_r2_v1.2.,2013-04-16 01:41:00,
2013-04-15 21:47:00,44.4,40.4,30.39,SSE,164,6.0,12.0,86,0.00,,,0.00,0,HR-IXPWINDi_r2_v1.2.,2013-04-16 01:47:00,
2013-04-15 21:52:00,44.4,40.4,30.39,South,174,9.0,10.0,86,0.00,,,0.00,0,HR-IXPWINDi_r2_v1.2.,2013-04-16 01:52:00,
2013-04-15 21:57:00,44.3,40.3,30.39,SE,146,6.0,10.0,86,0.00,,,0.00,0,HR-IXPWINDi_r2_v1.2.,2013-04-16 01:57:00,
2013-04-15 22:02:00,44.3,40.3,30.39,SE,139,7.0,11.0,86,0.00,,,0.00,0,HR-IXPWINDi_r2_v1.2.,2013-04-16 02:02:00,
2013-04-15 22:08:00,44.4,40.4,30.39,SSW,196,9.0,13.0,86,0.00,,,0.00,0,HR-IXPWINDi_r2_v1.2.,2013-04-16 02:08:00,
2013-04-15 22:13:00,44.5,40.5,30.39,SSE,149,7.0,13.0,86,0.00,,,0.00,0,HR-IXPWINDi_r2_v1.2.,2013-04-16 02:13:00,
2013-04-15 22:18:00,44.6,40.3,30.39,SSE,149,7.0,13.0,85,0.00,,,0.00,0,HR-IXPWINDi_r2_v1.2.,2013-04-16 02:18:00,
2013-04-15 22:23:00,44.7,40.1,30.39,South,180,5.0,10.0,84,0.00,,,0.00,0,HR-IXPWINDi_r2_v1.2.,2013-04-16 02:23:00,
2013-04-15 22:28:00,44.7,40.4,30.39,South,191,8.0,9.0,85,0.00,,,0.00,0,HR-IXPWINDi_r2_v1.2.,2013-04-16 02:28:00,
2013-04-15 22:33:00,44.6,40.0,30.39,South,184,8.0,12.0,84,0.00,,,0.00,0,HR-IXPWINDi_r2_v1.2.,2013-04-16 02:33:00,
2013-04-15 22:39:00,44.7,39.8,30.40,SSE,163,6.0,12.0,83,0.00,,,0.00,0,HR-IXPWINDi_r2_v1.2.,2013-04-16 02:39:00,
2013-04-15 22:44:00,44.7,39.8,30.39,South,177,6.0,12.0,83,0.00,,,0.00,0,HR-IXPWINDi_r2_v1.2.,2013-04-16 02:44:00,
2013-04-15 22:49:00,44.8,39.6,30.39,South,190,8.0,12.0,82,0.00,,,0.00,0,HR-IXPWINDi_r2_v1.2.,2013-04-16 02:49:00,
2013-04-15 22:55:00,44.9,39.4,30.39,South,188,11.0,12.0,81,0.00,,,0.00,0,HR-IXPWINDi_r2_v1.2.,2013-04-16 02:55:00,
2013-04-15 23:00:00,44.9,39.4,30.39,South,188,12.0,12.0,81,0.00,,,0.00,0,HR-IXPWINDi_r2_v1.2.,2013-04-16 03:00:00,
2013-04-15 23:05:00,44.9,39.1,30.39,South,185,13.0,14.0,80,0.00,,,0.00,0,HR-IXPWINDi_r2_v1.2.,2013-04-16 03:05:00,
2013-04-15 23:10:00,44.9,39.1,30.39,South,184,11.0,14.0,80,0.00,,,0.00,0,HR-IXPWINDi_r2_v1.2.,2013-04-16 03:10:00,
2013-04-15 23:15:00,44.9,39.1,30.39,South,186,12.0,14.0,80,0.00,,,0.00,0,HR-IXPWINDi_r2_v1.2.,2013-04-16 03:15:00,
2013-04-15 23:20:00,44.9,39.1,30.39,SSW,192,11.0,14.0,80,0.00,,,0.00,0,HR-IXPWINDi_r2_v1.2.,2013-04-16 03:20:00,
2013-04-15 23:25:00,44.8,39.3,30.39,South,180,10.0,14.0,81,0.00,,,0.00,0,HR-IXPWINDi_r2_v1.2.,2013-04-16 03:25:00,
2013-04-15 23:30:00,44.8,38.6,30.39,South,185,11.0,15.0,79,0.00,,,0.00,0,HR-IXPWINDi_r2_v1.2.,2013-04-16 03:30:00,
2013-04-15 23:36:00,44.7,38.2,30.39,SSW,199,11.0,15.0,78,0.00,,,0.00,0,HR-IXPWINDi_r2_v1.2.,2013-04-16 03:36:00,
2013-04-15 23:41:00,44.8,38.0,30.39,South,191,11.0,16.0,77,0.00,,,0.00,0,HR-IXPWINDi_r2_v1.2.,2013-04-16 03:41:00,
2013-04-15 23:46:00,44.8,38.0,30.39,South,190,12.0,16.0,77,0.00,,,0.00,0,HR-IXPWINDi_r2_v1.2.,2013-04-16 03:46:00,
2013-04-15 23:52:00,44.7,37.9,30.39,South,187,10.0,16.0,77,0.00,,,0.00,0,HR-IXPWINDi_r2_v1.2.,2013-04-16 03:52:00,
2013-04-15 23:57:00,44.7,38.2,30.39,South,188,11.0,15.0,78,0.00,,,0.00,0,HR-IXPWINDi_r2_v1.2.,2013-04-16 03:57:00,